Change the Weather History Date:

Tuesday, June 11, 2013

  Actual Average Record
Temperature  
Mean Temperature 72 °F 66 °F  
Max Temperature 81 °F 77 °F 93 °F (1999)
Min Temperature 62 °F 56 °F 44 °F (2006)
Degree Days  
Heating Degree Days 0    
Month to date heating degree days 45  
Since 1 June heating degree days 45  
Since 1 July heating degree days 6540  
Cooling Degree Days 7    
Month to date cooling degree days 18  
Year to date cooling degree days 92  
Since 1 June cooling degree days 18  
Growing Degree Days 22 (Base 50)    
Moisture  
Dew Point 62 °F    
Average Humidity 77    
Maximum Humidity 100    
Minimum Humidity 54    
Precipitation  
Precipitation T in 0.10 in 0.52 in (2014)
Month to date precipitation 0.14 1.08  
Year to date precipitation 18.49 12.73  
Snow  
Snow 0.00 in - - ()
Month to date snowfall 0.0  
Since 1 June snowfall 0.0  
Since 1 July snowfall 43.5  
Snow Depth 0.00 in    
Sea Level Pressure  
Sea Level Pressure 29.84 in    
Wind  
Wind Speed 7 mph (WNW)    
Max Wind Speed 18 mph    
Max Gust Speed 22 mph    
Visibility 5 miles    
Events Fog    
T = Trace of Precipitation, MM = Missing Value Source: NWS Daily Summary

Daily Weather History Graph

Daily Weather History Graph

Search for Another Location

Airport or City:

Trip Planner

Search our weather history database for the weather conditions in past years. The results will help you decide how hot, cold, wet, or windy it might be!

Date:

Astronomy

Jun. 11, 2013 Rise Set
Actual Time 5:54 AM EDT 9:17 PM EDT
Civil Twilight 5:19 AM EDT 9:53 PM EDT
Nautical Twilight 4:32 AM EDT 10:39 PM EDT
Astronomical Twilight 3:34 AM EDT 11:37 PM EDT
Moon 8:40 AM EDT (6/11) 11:15 PM EDT (6/11)
Length of Visible Light 16h 33m
Length of Day
15h 22m
Waxing Crescent, 8% of the Moon is Illuminated
Jun 11
Waxing Crescent
Jun 16
First Quarter
Jun 23
Full
Jun 30
Last Quarter
Jul 8
New

Hourly Weather History & Observations

Time (EDT) Temp. Heat Index Dew Point Humidity Pressure Visibility Wind Dir Wind Speed Gust Speed Precip Events Conditions
12:04 AM 62.6 °F - 60.8 °F 94% 29.82 in 2.0 mi NNE 4.6 mph - N/A   Overcast
12:12 AM 62.6 °F - 60.8 °F 94% 29.82 in 1.2 mi NNE 6.9 mph - N/A   Overcast
12:53 AM 63.0 °F - 61.0 °F 93% 29.82 in 0.8 mi North 3.5 mph - 0.01 in   Overcast
1:06 AM 62.6 °F - 60.8 °F 94% 29.82 in 1.0 mi NNW 4.6 mph - N/A   Overcast
1:35 AM 62.6 °F - 60.8 °F 94% 29.82 in 0.8 mi Calm Calm - N/A   Overcast
1:53 AM 63.0 °F - 62.1 °F 97% 29.82 in 1.0 mi Calm Calm - N/A   Overcast
2:46 AM 62.6 °F - 62.6 °F 100% 29.83 in 0.8 mi NW 4.6 mph - N/A   Overcast
2:53 AM 63.0 °F - 62.1 °F 97% 29.83 in 1.2 mi NW 5.8 mph - N/A   Overcast
3:34 AM 62.6 °F - 60.8 °F 94% 29.83 in 0.5 mi NNW 4.6 mph - N/A Fog Fog
3:53 AM 63.0 °F - 61.0 °F 93% 29.82 in 0.5 mi Calm Calm - N/A Fog Fog
4:09 AM 62.6 °F - 62.6 °F 100% 29.82 in 1.0 mi Calm Calm - N/A   Mist
4:27 AM 62.6 °F - 62.6 °F 100% 29.82 in 0.8 mi Calm Calm - N/A   Mist
4:34 AM 62.6 °F - 62.6 °F 100% 29.82 in 1.2 mi NNW 3.5 mph - N/A   Overcast
4:48 AM 62.6 °F - 62.6 °F 100% 29.83 in 3.0 mi West 4.6 mph - N/A   Overcast
4:53 AM 63.0 °F - 62.1 °F 97% 29.83 in 2.5 mi West 3.5 mph - N/A   Overcast
5:10 AM 62.6 °F - 62.6 °F 100% 29.83 in 1.5 mi West 5.8 mph - N/A   Overcast
5:25 AM 62.6 °F - 62.6 °F 100% 29.84 in 2.5 mi West 4.6 mph - N/A   Overcast
5:53 AM 63.0 °F - 62.1 °F 97% 29.84 in 1.0 mi WNW 3.5 mph - N/A   Overcast
6:53 AM 64.0 °F - 62.1 °F 93% 29.86 in 1.0 mi WNW 4.6 mph - N/A   Overcast
7:53 AM 64.0 °F - 63.0 °F 96% 29.86 in 1.5 mi West 4.6 mph - N/A   Overcast
8:25 AM 64.4 °F - 62.6 °F 94% 29.87 in 2.5 mi West 5.8 mph - N/A   Scattered Clouds
8:43 AM 66.2 °F - 62.6 °F 88% 29.88 in 2.5 mi West 5.8 mph - N/A   Mostly Cloudy
8:53 AM 66.0 °F - 63.0 °F 90% 29.88 in 3.0 mi West 6.9 mph - N/A   Mostly Cloudy
9:26 AM 69.8 °F - 62.6 °F 78% 29.89 in 5.0 mi WNW 8.1 mph - N/A   Haze
9:53 AM 69.1 °F - 62.1 °F 78% 29.88 in 9.0 mi WNW 6.9 mph - N/A   Overcast
10:53 AM 72.0 °F - 62.1 °F 71% 29.88 in 10.0 mi NNW 10.4 mph - N/A   Mostly Cloudy
11:53 AM 73.9 °F - 62.1 °F 66% 29.89 in 10.0 mi NNW 8.1 mph - N/A   Scattered Clouds
12:04 PM 73.4 °F - 62.6 °F 69% 29.89 in 10.0 mi NW 6.9 mph - N/A   Mostly Cloudy
12:37 PM 75.2 °F - 62.6 °F 65% 29.89 in 10.0 mi NW 8.1 mph - N/A   Scattered Clouds
12:53 PM 75.9 °F - 62.1 °F 62% 29.88 in 10.0 mi Calm Calm - N/A   Partly Cloudy
1:53 PM 78.1 °F - 62.1 °F 58% 29.86 in 10.0 mi WSW 6.9 mph - N/A   Partly Cloudy
2:53 PM 79.0 °F - 62.1 °F 56% 29.85 in 10.0 mi WSW 8.1 mph - N/A   Mostly Cloudy
3:53 PM 81.0 °F 82.2 °F 63.0 °F 54% 29.84 in 10.0 mi WSW 11.5 mph - N/A   Partly Cloudy
4:53 PM 79.0 °F - 64.0 °F 60% 29.83 in 10.0 mi WSW 8.1 mph - N/A   Mostly Cloudy
5:53 PM 79.0 °F - 64.0 °F 60% 29.82 in 10.0 mi WSW 10.4 mph - 0.00 in   Mostly Cloudy
6:53 PM 79.0 °F - 62.1 °F 56% 29.80 in 10.0 mi WSW 15.0 mph 21.9 mph N/A   Partly Cloudy
7:53 PM 78.1 °F - 63.0 °F 60% 29.80 in 10.0 mi West 10.4 mph - N/A   Partly Cloudy
8:53 PM 75.9 °F - 63.0 °F 64% 29.83 in 9.0 mi WSW 11.5 mph - N/A   Clear
9:53 PM 72.0 °F - 62.1 °F 71% 29.85 in 10.0 mi West 5.8 mph - N/A   Clear
10:53 PM 69.1 °F - 62.1 °F 78% 29.85 in 10.0 mi West 6.9 mph - N/A   Clear
11:53 PM 68.0 °F - 60.1 °F 76% 29.86 in 10.0 mi West 8.1 mph - N/A   Clear